Overview Statistics Trail Chart Weather Telemetry Raw packets
 

This is the latest recevied weather packets stored in our database for station/object N0QWM. If no packets are shown the sender has not sent any weather packets the latest 10 day(s).

<< 66 67 68 69 70 71 72 >>
Time Temp. Humidity Pressure Rain* Wind** Luminosity Snow
1788211107 35.56° C 54% 1022.8 hPa 0 mm - 393 W/m² -
1788210802 35.56° C 54% 1022.9 hPa 0 mm - 442 W/m² -
1788210501 35° C 55% 1023 hPa 0 mm - 297 W/m² -
1788210198 35.56° C 54% 1023 hPa 0 mm - 449 W/m² -
1788209892 35° C 54% 1022.9 hPa 0 mm - 426 W/m² -
1788209588 33.89° C 56% 1023 hPa 0 mm - 441 W/m² -
1788209288 34.44° C 54% 1023 hPa 0 mm - 105 W/m² -
1788208987 35.56° C 52% 1023.2 hPa 0 mm - 95 W/m² -
1788208687 35.56° C 53% 1022.9 hPa 0 mm - 466 W/m² -
1788208381 35° C 56% 1023.1 hPa 0 mm - 370 W/m² -
1788208080 35.56° C 56% 1023 hPa 0 mm - 550 W/m² -
1788207775 35° C 55% 1023 hPa 0 mm - 547 W/m² -
1788207474 33.33° C 57% 1023.2 hPa 0 mm - 494 W/m² -
1788207174 33.33° C 57% 1023.4 hPa 0 mm - 78 W/m² -
1788206870 33.89° C 56% 1023.3 hPa 0 mm - 87 W/m² -
1788206564 33.89° C 55% 1023.3 hPa 0 mm - 82 W/m² -
1788206260 35.56° C 53% 1023.2 hPa 0 mm - 96 W/m² -
1788205956 36.11° C 51% 1023.4 hPa 0 mm - 612 W/m² -
1788205650 36.11° C 50% 1023.5 hPa 0 mm - 605 W/m² -
1788205347 35.56° C 53% 1023.4 hPa 0 mm - 526 W/m² -
1788205045 35° C 51% 1023.5 hPa 0 mm - 512 W/m² -
1788204741 35.56° C 52% 1023.5 hPa 0 mm - 86 W/m² -
1788204436 35° C 54% 1023.6 hPa 0 mm - 125 W/m² -
1788204131 35.56° C 54% 1023.8 hPa 0 mm - 94 W/m² -
1788203827 36.11° C 52% 1023.8 hPa 0 mm - 418 W/m² -

* Rain latest hour (hover to see other rain measurements)
** Current wind speed in m/s (hover to see current wind gust speed)